Home   Weather   Davis   Past weeks

Flag for USA Past Weather in Davis, California, USA — Yesterday and Last 2 Weeks

Now
69 °F

Scattered clouds.


Feels Like: 69 °F
Forecast: 52 / 62 °F
Wind: 16 mph from South

Location: Sacramento International Airport

Current Time: Apr 23, 2017 at 6:51:08 pm

Latest Report: Apr 23, 2017 at 5:53 pm


Visibility: 10 mi

Pressure: 29.91 "Hg

Humidity: 57%

Dew Point: 53 °F

Location of DavisLocation

Past Weather in Davis — Graph

°F

Davis Temperature Yesterday

Maximum temperature yesterday: 70 °F (at 1:53 pm)
Minimum temperature yesterday: 52 °F (at 4:53 am)
Average temperature yesterday: 61 °F

High & Low Weather Summary for the Past Weeks

 TemperatureHumidityPressure
High78 °F (Apr 21, 5:53 pm)100% (Apr 9, 12:53 am)30.29 "Hg (Apr 9, 12:53 am)
Low38 °F (Apr 9, 4:53 am)27% (Apr 21, 4:53 pm)29.84 "Hg (Apr 12, 6:53 pm)
Average57 °F76%30.05 "Hg
* Reported Apr 8 4:53 pm — Apr 23 4:53 pm, Davis, Weather by CustomWeather, © 2017

Note: Actual official high and low records may vary slightly from our data, if they occured in-between our weather recording intervals... More about our weather records

Advertising

Davis Weather History for the Previous 24 Hours

Scroll right to see more
 ConditionsComfort  
Time TempWeatherWind HumidityBarometerVisibility
4:53 pm
Sun, Apr 23
70 °FPartly sunny.15 mph55%29.91 "Hg10 mi
3:53 pm71 °FPartly sunny.13 mph49%29.92 "Hg10 mi
2:53 pm70 °FPartly sunny.8 mph53%29.94 "Hg10 mi
1:53 pm68 °FPartly sunny.7 mph57%29.96 "Hg10 mi
12:53 pm66 °FPartly sunny.5 mph56%29.96 "Hg10 mi
11:53 am63 °FPartly sunny.6 mph60%29.97 "Hg10 mi
10:53 am62 °FPassing clouds.7 mph60%29.96 "Hg10 mi
9:53 am59 °FSunny.5 mph69%29.95 "Hg10 mi
8:53 am56 °FPassing clouds.No wind81%29.94 "Hg10 mi
7:53 am53 °FScattered clouds.6 mph86%29.94 "Hg10 mi
6:53 am49 °FPartly sunny.3 mph97%29.93 "Hg10 mi
5:53 am51 °FPassing clouds.8 mph89%29.91 "Hg10 mi
4:53 am51 °FPassing clouds.7 mph92%29.91 "Hg10 mi
3:53 am51 °FPassing clouds.9 mph92%29.90 "Hg10 mi
2:53 am52 °FClear.9 mph89%29.91 "Hg10 mi
1:53 am52 °FClear.10 mph86%29.91 "Hg10 mi
12:53 am53 °FClear.8 mph89%29.93 "Hg10 mi
11:53 pm
Sat, Apr 22
54 °FClear.9 mph90%29.93 "Hg10 mi
10:53 pm55 °FClear.6 mph90%29.92 "Hg10 mi
9:53 pm58 °FClear.8 mph84%29.94 "Hg10 mi
8:53 pm61 °FPassing clouds.9 mph81%29.93 "Hg10 mi
7:53 pm63 °FPassing clouds.8 mph78%29.92 "Hg10 mi
6:53 pm65 °FPartly sunny.7 mph76%29.93 "Hg10 mi
Weather by CustomWeather, © 2017

See weather overviewHow to use our weather pages